Van Nuys, CA

10:47 PM PDT on May 24, 2017 (GMT -0700)
Van Nuys

Weather History for KVNY - December, 2013

Change the Weather History Date:

Thursday, December 26, 2013

  Actual Average Record
Temperature  
Mean Temperature 70 °F -  
Max Temperature 78 °F 64 °F 78 °F (2013)
Min Temperature 55 °F 43 °F 34 °F (2007)
Cooling Degree Days 6    
Growing Degree Days 20 (Base 50)    
Moisture  
Dew Point 4 °F    
Average Humidity 8    
Maximum Humidity 18    
Minimum Humidity 5    
Precipitation  
Precipitation 0.00 in - - ()
Sea Level Pressure  
Sea Level Pressure 30.11 in    
Wind  
Wind Speed 15 mph (North)    
Max Wind Speed 21 mph    
Max Gust Speed 29 mph    
Visibility 10 miles    
Events      
Averages and records for this station are not official NWS values.
T = Trace of Precipitation, MM = Missing Value Source: NWS Daily Summary

Daily Weather History Graph

Daily Weather History Graph

Search for Another Location

Airport or City:

Trip Planner

Search our weather history database for the weather conditions in past years. The results will help you decide how hot, cold, wet, or windy it might be!

Date:

Astronomy

Dec. 26, 2013 Rise Set
Actual Time 6:58 AM PST 4:51 PM PST
Civil Twilight 6:30 AM PST 5:19 PM PST
Nautical Twilight 5:59 AM PST 5:50 PM PST
Astronomical Twilight 5:28 AM PST 6:21 PM PST
Moon 12:43 AM PST (12/26) 12:19 PM PST (12/26)
Length of Visible Light 10h 48m
Length of Day
9h 52m
Last Quarter, 37% of the Moon is Illuminated
Dec 26
Last Quarter
Jan 1
New
Jan 7
First Quarter
Jan 15
Full
Jan 23
Last Quarter

Hourly Weather History & Observations

Time (PST) Temp. Dew Point Humidity Pressure Visibility Wind Dir Wind Speed Gust Speed Precip Events Conditions
12:51 AM 66.0 °F 5.0 °F 9% 30.13 in 10.0 mi North 18.4 mph 24.2 mph N/A   Clear
1:51 AM 64.9 °F 6.1 °F 10% 30.12 in 10.0 mi North 15.0 mph - N/A   Clear
2:51 AM 64.9 °F 6.1 °F 10% 30.12 in 10.0 mi North 17.3 mph - N/A   Clear
3:51 AM 64.9 °F 6.1 °F 10% 30.12 in 10.0 mi North 16.1 mph - N/A   Clear
4:51 AM 63.0 °F 7.0 °F 11% 30.13 in 10.0 mi Variable 4.6 mph - N/A   Clear
5:51 AM 63.0 °F 7.0 °F 11% 30.14 in 10.0 mi NNE 6.9 mph - N/A   Clear
6:51 AM 64.0 °F 5.0 °F 10% 30.13 in 10.0 mi North 15.0 mph - N/A   Clear
7:51 AM 66.0 °F 6.1 °F 9% 30.14 in 10.0 mi North 16.1 mph 23.0 mph N/A   Clear
8:51 AM 69.1 °F 6.1 °F 9% 30.15 in 10.0 mi North 16.1 mph 23.0 mph N/A   Clear
9:51 AM 72.0 °F 6.1 °F 8% 30.14 in 10.0 mi North 19.6 mph 26.5 mph N/A   Clear
10:51 AM 75.9 °F 3.0 °F 6% 30.13 in 10.0 mi North 17.3 mph 28.8 mph N/A   Clear
11:51 AM 77.0 °F 1.9 °F 5% 30.09 in 10.0 mi North 20.7 mph 27.6 mph N/A   Clear
12:51 PM 77.0 °F 1.0 °F 5% 30.07 in 10.0 mi North 19.6 mph 26.5 mph N/A   Clear
1:51 PM 78.1 °F 1.0 °F 5% 30.05 in 10.0 mi North 20.7 mph 27.6 mph N/A   Clear
2:51 PM 77.0 °F 3.9 °F 6% 30.05 in 10.0 mi North 19.6 mph 27.6 mph N/A   Clear
3:51 PM 75.9 °F 6.1 °F 7% 30.07 in 10.0 mi North 11.5 mph - N/A   Clear
4:51 PM 72.0 °F 3.0 °F 7% 30.08 in 10.0 mi NNW 6.9 mph 16.1 mph N/A   Clear
5:51 PM 70.0 °F 3.0 °F 7% 30.10 in 10.0 mi North 13.8 mph - N/A   Clear
6:51 PM 68.0 °F 3.0 °F 8% 30.11 in 10.0 mi North 11.5 mph - N/A   Clear
7:51 PM 66.9 °F 3.0 °F 8% 30.12 in 10.0 mi NNE 8.1 mph - N/A   Clear
8:51 PM 66.9 °F 3.0 °F 8% 30.12 in 10.0 mi North 17.3 mph - N/A   Clear
9:51 PM 66.9 °F 1.0 °F 7% 30.12 in 10.0 mi North 12.7 mph - N/A   Clear
10:51 PM 66.0 °F 1.9 °F 8% 30.13 in 10.0 mi NNE 8.1 mph - N/A   Clear
11:51 PM 55.0 °F 12.0 °F 18% 30.14 in 10.0 mi South 4.6 mph - N/A   Clear